Waarnemingen

Advertentie
Mijn weer
Junsele A, Zweden (2243): temperatuur & dauwpunt: 17.09.2018 02:00:00 - 23.09.2018 02:00:00 (CEST)Junsele A, Zweden (2243): windsnelheid & windstoten: 17.09.2018 02:00:00 - 23.09.2018 02:00:00 (CEST)Junsele A, Zweden (2243): windrichting: 17.09.2018 02:00:00 - 23.09.2018 02:00:00 (CEST)Junsele A, Zweden (2243): luchtdruk: 17.09.2018 02:00:00 - 23.09.2018 02:00:00 (CEST)Junsele A, Zweden (2243): zicht: 17.09.2018 02:00:00 - 23.09.2018 02:00:00 (CEST)Junsele A, Zweden (2243): neerslag: 17.09.2018 02:00:00 - 23.09.2018 02:00:00 (CEST)
Datum & Tijd tt [°C] td [°C] ff [km/u] ff [kn] fx [km/u] fx [kn] dd ppp [hPa] vv [km] rr [mm]
23.09.2018 02:00:00 6,5 3,6 4 2 17 9 WZW 987,7 50 0,0
23.09.2018 01:00:00 7,5 4,0 8 4 27 15 W 987,2 50 0,0
23.09.2018 00:00:00 7,8 3,9 10 5 24 13 W 986,5 50 0,0
22.09.2018 23:00:00 8,6 3,9 12 6 34 19 WZW 986,0 50 0,0
22.09.2018 22:00:00 9,4 3,6 9 5 37 20 WZW 985,6 50 0,0
22.09.2018 21:00:00 10,4 3,5 13 7 43 23 ZW 984,6 50 0,0
22.09.2018 20:00:00 11,3 3,6 13 7 34 18 WZW 983,9 50 0,0
22.09.2018 19:00:00 11,2 3,5 11 6 53 28 WZW 983,0 50 0,0
22.09.2018 18:00:00 11,5 3,5 18 10 39 21 ZW 982,5 50 0,0
22.09.2018 17:00:00 11,4 3,5 18 10 46 25 ZW 982,1 50 0,0
22.09.2018 16:00:00 11,4 4,0 17 9 39 21 ZW 981,5 50 0,0
22.09.2018 15:00:00 10,8 5,0 13 7 46 25 ZW 981,0 50 0,0
22.09.2018 14:00:00 11,3 4,6 14 8 42 23 WZW 980,1 50 0,0
22.09.2018 13:00:00 9,9 5,5 14 8 36 20 WZW 979,7 50 0,0
22.09.2018 12:00:00 8,7 6,0 13 7 31 17 ZW 979,3 44 0,0
22.09.2018 11:00:00 9,3 6,9 12 6 31 17 WZW 978,4 50 0,0
22.09.2018 10:00:00 9,0 8,4 9 5 20 11 ZZW 977,3 39 0,9
22.09.2018 09:00:00 8,3 7,9 9 5 23 12 Z 977,1 7 0,2
22.09.2018 08:00:00 8,3 7,7 10 6 26 14 ZZO 977,1 12 0,3
22.09.2018 07:00:00 8,8 7,1 13 7 27 15 ZO 977,6 33 0,0
22.09.2018 06:00:00 9,1 6,8 8 5 27 14 ZZO 978,4 48 0,0
22.09.2018 05:00:00 9,4 7,4 9 5 23 13 ZO 979,0 38 0,0
22.09.2018 04:00:00 10,3 7,9 10 5 32 17 Z 979,4 38 0,0
22.09.2018 03:00:00 11,4 9,5 12 7 31 17 ZZO 979,9 38 0,0
22.09.2018 02:00:00 11,9 10,0 9 5 26 14 Z 980,4 44 0,0
22.09.2018 01:00:00 12,5 11,2 10 5 28 15 ZZO 981,4 22 0,1
22.09.2018 00:00:00 13,4 11,8 10 5 26 14 ZZO 981,7 22 0,0
21.09.2018 23:00:00 13,2 12,4 11 6 28 15 ZO 982,6 17 0,0
21.09.2018 22:00:00 12,9 12,6 9 5 30 16 ZO 983,5 12 0,2
21.09.2018 21:00:00 12,1 12,1 7 4 19 11 OZO 984,7 8 0,1
21.09.2018 20:00:00 11,3 11,3 10 6 21 11 ZO 986,4 6 0,0
21.09.2018 19:00:00 10,2 10,2 9 5 22 12 OZO 987,7 3,2 0,0
21.09.2018 18:00:00 9,4 9,4 9 5 28 15 OZO 989,4 3,5 0,0
21.09.2018 17:00:00 8,9 8,6 13 7 32 18 OZO 990,8 27 0,0
21.09.2018 16:00:00 8,6 8,0 11 6 22 12 OZO 992,4 20 0,6
21.09.2018 15:00:00 9,2 7,3 10 5 22 12 ZO 993,7 18 0,2
21.09.2018 14:00:00 10,9 4,4 7 4 30 16 Z 994,9 33 0,0
21.09.2018 13:00:00 11,6 5,1 9 5 25 14 ZZO 995,8 29 0,0
21.09.2018 12:00:00 11,7 4,4 9 5 23 13 Z 996,4 42 0,0
21.09.2018 11:00:00 11,5 3,6 10 6 23 12 Z 997,2 39 0,0
21.09.2018 10:00:00 9,0 3,4 6 3 13 7 ZZO 997,6 48 0,0
21.09.2018 09:00:00 8,8 2,8 5 3 14 7 ZO 998,1 50 0,0
21.09.2018 08:00:00 5,4 2,1 3 2 14 8 OZO 998,4 50 0,0
21.09.2018 07:00:00 2,7 0,9 3 2 9 5 O 998,4 50 0,0
21.09.2018 06:00:00 1,8 0,5 3 2 8 5 ZZO 998,6 50 0,0
21.09.2018 05:00:00 2,7 0,4 3 2 9 5 ZO 998,3 50 0,0
21.09.2018 04:00:00 3,0 1,4 5 3 15 8 NO 998,5 50 0,0
21.09.2018 03:00:00 5,9 1,5 5 3 20 11 Z 997,9 50 0,0
21.09.2018 02:00:00 7,1 1,4 5 3 16 9 Z 997,4 50 0,0
21.09.2018 01:00:00 8,0 1,9 5 3 22 12 Z 997,2 50 0,0
21.09.2018 00:00:00 9,3 2,4 9 5 28 15 ZZW 996,6 50 0,0
20.09.2018 23:00:00 9,9 2,3 7 4 20 11 ZZW 995,8 50 0,0
20.09.2018 22:00:00 9,7 3,2 5 3 13 7 Z 995,4 50 0,0
20.09.2018 21:00:00 10,4 3,9 5 3 35 19 WZW 995,8 50 0,0
20.09.2018 20:00:00 12,1 1,8 6 3 24 13 W 994,3 50 0,0
20.09.2018 19:00:00 12,4 1,7 9 5 28 15 ZZW 993,4 50 0,0
20.09.2018 18:00:00 14,4 0,7 14 8 44 24 ZW 992,9 50 0,0
20.09.2018 17:00:00 15,3 0,3 17 9 39 21 ZW 992,5 50 0,0
20.09.2018 16:00:00 15,8 2,6 18 10 44 24 ZW 992,1 50 0,0
20.09.2018 15:00:00 15,4 1,9 15 8 38 20 ZW 992,0 50 0,0
20.09.2018 14:00:00 16,7 2,7 20 11 43 23 ZW 991,7 42 0,0
20.09.2018 13:00:00 15,3 2,9 15 8 48 26 WZW 991,4 50 0,0
20.09.2018 12:00:00 15,7 2,8 19 10 40 22 ZW 991,1 50 0,0
20.09.2018 11:00:00 15,9 5,2 13 7 39 21 ZW 990,9 41 0,0
20.09.2018 10:00:00 15,2 7,3 15 8 31 17 ZZW 990,5 33 0,0
20.09.2018 09:00:00 14,3 7,8 14 8 35 19 ZZW 990,3 40 0,0
20.09.2018 08:00:00 13,5 10,5 9 5 24 13 Z 989,5 41 0,0
20.09.2018 07:00:00 13,0 10,9 8 5 27 14 Z 989,6 50 0,0
20.09.2018 06:00:00 13,2 11,7 9 5 48 26 Z 989,7 38 0,0
20.09.2018 05:00:00 14,2 11,2 13 7 38 20 ZZO 989,9 43 0,0
20.09.2018 04:00:00 13,6 10,8 11 6 29 15 ZZO 991,6 25 0,0
20.09.2018 03:00:00 12,9 10,4 11 6 37 20 ZO 993,0 41 0,0
20.09.2018 02:00:00 12,1 10,3 6 4 18 10 OZO 994,6 30 0,0
20.09.2018 01:00:00 11,4 10,2 8 4 15 8 ZO 995,6 50 0,0
20.09.2018 00:00:00 11,5 10,2 7 4 16 9 ZO 996,9 50 0,0
19.09.2018 23:00:00 11,3 11,1 7 4 12 7 ZO 997,1 35 0,0
19.09.2018 22:00:00 11,9 11,9 6 4 15 8 ZO 997,9 8 0,0
19.09.2018 21:00:00 12,6 12,6 5 3 14 8 OZO 998,6 1,5 0,0
19.09.2018 20:00:00 13,2 13,2 7 4 15 8 OZO 998,8 2,0 0,0
19.09.2018 19:00:00 13,7 13,5 1 1 10 5 ONO 998,7 0,9 0,0
19.09.2018 18:00:00 15,2 14,6 4 2 8 4 O 998,4 15 0,0
19.09.2018 17:00:00 16,2 15,6 1 1 11 6 NNO 998,6 11 0,0
19.09.2018 16:00:00 14,7 14,6 10 6 18 10 O 996,9 4,2 2,5
19.09.2018 15:00:00 15,9 14,1 3 1 9 5 NNO 997,6 14 0,0
19.09.2018 14:00:00 17,9 12,6 3 2 10 5 NNW 997,2 39 0,0
19.09.2018 13:00:00 18,1 12,7 4 2 13 7 NW 996,8 35 0,0
19.09.2018 12:00:00 16,9 12,8 5 3 11 6 W 996,6 44 0,0
19.09.2018 11:00:00 16,1 12,5 3 2 8 5 WZW 996,4 41 0,0
19.09.2018 10:00:00 13,9 12,3 3 2 7 4 OZO - 37 0,0
19.09.2018 09:00:00 12,4 12,2 3 2 6 3 OZO 996,6 13 0,0
19.09.2018 08:00:00 11,6 11,6 2 1 5 3 O 996,1 6 0,0
19.09.2018 07:00:00 11,2 11,2 3 2 9 5 ONO 995,9 6 0,1
19.09.2018 06:00:00 11,2 11,1 4 2 10 5 NO 996,3 4,0 0,0
19.09.2018 05:00:00 11,4 11,1 5 3 19 11 ZO 996,6 25 0,0
19.09.2018 04:00:00 11,2 11,0 6 3 19 10 OZO 997,0 16 0,0
19.09.2018 03:00:00 11,1 10,9 5 3 16 8 OZO 997,6 14 0,0
19.09.2018 02:00:00 11,0 10,9 4 2 13 7 O 998,7 23 0,0
19.09.2018 01:00:00 11,0 10,7 5 3 12 6 OZO 999,8 26 0,0
19.09.2018 00:00:00 10,8 10,5 6 3 20 11 O 999,9 36 0,0
18.09.2018 23:00:00 10,5 10,2 6 3 15 8 O 1000,5 40 0,0
18.09.2018 22:00:00 10,3 9,9 4 2 17 9 O 1001,1 44 0,0
18.09.2018 21:00:00 10,2 9,6 4 2 11 6 O 1001,7 49 0,0
18.09.2018 20:00:00 10,2 9,5 5 3 10 5 OZO 1002,0 34 0,0
18.09.2018 19:00:00 10,9 9,5 5 3 14 8 ZZO 1001,7 50 0,0
18.09.2018 18:00:00 11,5 9,3 4 2 9 5 ZO 1001,8 50 0,0
18.09.2018 17:00:00 11,6 8,8 5 3 16 9 ZO 1001,6 50 0,0
18.09.2018 16:00:00 11,6 8,5 5 3 16 9 ZZO 1002,1 50 0,0
18.09.2018 15:00:00 12,4 8,6 7 4 18 10 ZZO 1002,3 50 0,0
18.09.2018 14:00:00 11,8 8,0 8 4 16 9 Z 1002,9 50 0,0
18.09.2018 13:00:00 11,6 7,4 6 3 14 8 ZZO 1003,3 50 0,0
18.09.2018 12:00:00 11,0 7,0 3 2 10 6 ZO 1003,9 50 0,0
18.09.2018 11:00:00 9,8 7,2 4 2 11 6 OZO 1004,6 50 0,0
18.09.2018 10:00:00 7,3 6,7 4 2 8 5 OZO 1005,1 45 0,0
18.09.2018 09:00:00 5,7 5,5 2 1 4 2 ONO 1005,9 50 0,0
18.09.2018 08:00:00 4,1 4,1 3 1 6 3 O 1006,2 40 0,0
18.09.2018 07:00:00 2,6 2,6 2 1 4 2 ONO 1006,7 35 0,0
18.09.2018 06:00:00 1,8 1,8 1 1 4 2 ONO 1007,1 29 0,0
18.09.2018 05:00:00 2,3 2,3 2 1 5 3 NNO 1007,5 36 0,0
18.09.2018 04:00:00 3,2 3,2 1 1 6 3 O 1007,5 40 0,0
18.09.2018 03:00:00 2,5 2,5 4 2 6 3 OZO 1007,7 26 0,0
18.09.2018 02:00:00 3,1 3,1 2 1 4 2 OZO 1007,6 35 0,0
18.09.2018 01:00:00 2,2 2,2 1 1 5 3 NNW 1007,8 33 0,0
18.09.2018 00:00:00 3,0 3,0 3 1 4 2 OZO 1007,3 33 0,0
17.09.2018 23:00:00 2,3 2,2 2 1 5 3 ONO 1007,8 23 0,0
17.09.2018 22:00:00 4,1 4,0 1 0 5 3 ZZW 1007,5 26 0,0
17.09.2018 21:00:00 4,5 4,5 2 1 8 4 OZO 1007,4 28 0,0
17.09.2018 20:00:00 5,6 4,8 3 1 8 4 WZW 1006,8 50 0,0
17.09.2018 19:00:00 9,0 5,2 5 3 17 9 W 1006,0 46 0,0
17.09.2018 18:00:00 10,7 4,4 9 5 28 15 W 1005,1 46 0,0
17.09.2018 17:00:00 12,9 4,9 10 6 29 16 W 1004,5 48 0,0
17.09.2018 16:00:00 11,7 5,6 11 6 29 16 W 1004,1 37 0,0
17.09.2018 15:00:00 12,5 7,0 7 4 20 11 W 1004,0 33 0,0
17.09.2018 14:00:00 10,8 7,8 7 4 19 10 W 1003,7 35 0,0
17.09.2018 13:00:00 10,2 8,3 8 5 18 10 W 1003,5 48 0,0
17.09.2018 12:00:00 9,7 8,1 6 3 16 9 W 1003,3 50 0,0
17.09.2018 11:00:00 8,8 7,9 6 4 19 10 W 1003,0 50 0,0
17.09.2018 10:00:00 8,5 7,4 4 2 10 6 WNW 1002,6 50 0,0
17.09.2018 09:00:00 6,8 6,8 4 2 6 4 W 1002,6 20 0,0
17.09.2018 08:00:00 6,0 6,0 2 1 4 2 N 1002,1 3,9 0,3
17.09.2018 07:00:00 5,7 5,7 2 1 3 2 NNO 1002,1 2,0 0,7
17.09.2018 06:00:00 5,6 5,5 1 1 5 3 OZO 1002,1 9 0,2
17.09.2018 05:00:00 5,5 5,3 3 2 9 5 O 1002,4 24 0,2
17.09.2018 04:00:00 5,5 4,8 3 1 8 5 OZO 1003,1 32 0,2
17.09.2018 03:00:00 5,3 4,2 6 3 9 5 OZO 1003,8 50 0,0
17.09.2018 02:00:00 4,7 3,8 4 2 8 4 O 1004,6 50 0,0

tt = temperatuur
td = dauwpunt
ff = windsnelheid
fx = windstoten
dd = windrichting
ppp = luchtdruk
vv = zicht
rr = neerslag

Weerstations in de omgeving